OSCAR 15 (UOSAT 4)

Satellite information

Favourite Embed

Satellite Type and Status

PAYLOADIN ORBIT

Key statistics

Satellite OSCAR 15 (UOSAT 4) at a glance.

Uptime

12888

Days in orbit

Revolutions

≈ 14.3

Per day

Orbit

SSO

Sun Synchronous Orbit

Inclination

98.8

Latest

Satellite identification and parameters

Extended collection of information and parameters for OSCAR 15 (UOSAT 4).

Object identification

Identified? True

Debris? False

Object name: OSCAR 15 (UOSAT 4)

International designator: 1990-005C

Object number (NORAD): 20438

Object ID (CCSDS): 20438

Country: UNITED KINGDOM (UK)

Current information (Y/N): Y

RCS size: MEDIUM

Orbital parameters

Period: 100.586 minutes

Inclination: 98.8405 deg

SMA: 7164.498 km

Apoapsis: 794.185 km

Periapsis: 778.541 km

RAAN: 171.3112 deg

Eccentricy: 0.0010918

Argument of periapsis: 102.6546 deg

Mean anomaly: 76.5756 deg

Mean motion: 14.31607998 rev/day

Mean motion (dot): 0.00000121 rev/day2

B* drag term: 0.000062609 1/REarth

Two-line elements (TLE)

Creation date: May 6, 2025, 3:54 a.m.

Reference frame: TEME

Reference center: EARTH

Epoch: May 5, 2025, 9:31 p.m. UTC

TLE line 0: 0 OSCAR 15 (UOSAT 4)

TLE line 1: 1 20438U 90005C 25125.89686135 .00000121 00000-0 62609-4 0 9993

TLE line 2: 2 20438 98.8405 171.3112 0010918 102.6546 76.5756 14.31607998841942

Live tracking on map

Real-time ground track for satellite OSCAR 15 (UOSAT 4).

In-orbit conjunctions

There are no conjunctions computed for OSCAR 15 (UOSAT 4), at the moment. Check back to stay up to date, as we update our databases every day.

Go to all conjunctions

Associated space launch

French Earth observation satellite

OSCAR 15 (UOSAT 4) was lifted into orbit during the mission ‘Ariane 40 | SPOT 2’, on board a Ariane 40 space rocket.

The launch took place on Jan. 22, 1990, 1:35 a.m. from Ariane Launch Area 2.

For more information about the launch, click the button.

Launch to space Ariane 40 | SPOT 2
Ariane 40 | SPOT 2

Agency: N/A

Status: Launch Successful

Launch date: Jan. 22, 1990, 1:35 a.m. UTC

Rocket: Ariane 40

Launch pad: Ariane Launch Area 2

Location: Guiana Space Centre, French Guiana

...

Latest news about this satellite

There are no fresh news available about this satellite. Check back as we update our databases every day.


Newsletter sign-up

Weekly statistics, charts and insights to help you stay on top of the space industry.